Oklahoma City Wiley Post, OK

2:14 PM CST on January 19, 2018 (GMT -0600)
Wiley Post

Weather History for KPWA - January, 2013

Change the Weather History Date:

Friday, January 25, 2013

  Actual Average Record
Temperature  
Mean Temperature 38 °F -  
Max Temperature 48 °F 49 °F 72 °F (1953)
Min Temperature 27 °F 27 °F 4 °F (1963)
Degree Days  
Heating Degree Days 28    
Moisture  
Dew Point 25 °F    
Average Humidity 69    
Maximum Humidity 89    
Minimum Humidity 39    
Precipitation  
Precipitation 0.00 in - - ()
Sea Level Pressure  
Sea Level Pressure 30.21 in    
Wind  
Wind Speed 8 mph (NNE)    
Max Wind Speed 14 mph    
Max Gust Speed 21 mph    
Visibility 4 miles    
Events      
Averages and records for this station are not official NWS values.
T = Trace of Precipitation, MM = Missing Value Source: NWS Daily Summary

Daily Weather History Graph

Daily Weather History Graph

Search for Another Location

Airport or City:

Trip Planner

Search our weather history database for the weather conditions in past years. The results will help you decide how hot, cold, wet, or windy it might be!

Date:

Astronomy

Jan. 25, 2013 Rise Set
Actual Time 7:34 AM CST 5:51 PM CST
Civil Twilight 7:07 AM CST 6:18 PM CST
Nautical Twilight 6:36 AM CST 6:49 PM CST
Astronomical Twilight 6:06 AM CST 7:19 PM CST
Moon 4:49 PM CST (1/25) 6:15 AM CST (1/25)
Length of Visible Light 11h 10m
Length of Day
10h 16m
Waxing Gibbous, 98% of the Moon is Illuminated
Jan 25
Waxing Gibbous
Jan 26
Full
Feb 3
Last Quarter
Feb 10
New
Feb 17
First Quarter

Hourly Weather History & Observations

Time (CST) Temp. Windchill Dew Point Humidity Pressure Visibility Wind Dir Wind Speed Gust Speed Precip Events Conditions
12:53 AM 28.0 °F 20.8 °F 23.0 °F 81% 30.17 in 4.0 mi North 6.9 mph - N/A   Haze
1:53 AM 28.9 °F 19.8 °F 24.1 °F 82% 30.17 in 3.0 mi North 10.4 mph - N/A   Haze
2:12 AM 28.4 °F 22.2 °F 24.8 °F 86% 30.14 in 3.0 mi North 5.8 mph - N/A   Partly Cloudy
2:53 AM 27.0 °F 19.5 °F 23.0 °F 85% 30.16 in 3.0 mi North 6.9 mph - N/A   Clear
3:53 AM 27.0 °F 18.7 °F 24.1 °F 89% 30.17 in 3.0 mi North 8.1 mph - N/A   Mostly Cloudy
4:33 AM 28.4 °F 21.2 °F 24.8 °F 86% 30.13 in 4.0 mi North 6.9 mph - N/A   Overcast
4:53 AM 28.9 °F 19.8 °F 24.1 °F 82% 30.16 in 4.0 mi North 10.4 mph - N/A   Haze
5:53 AM 28.9 °F 18.6 °F 25.0 °F 85% 30.19 in 3.0 mi North 12.7 mph - N/A   Overcast
6:53 AM 28.9 °F 19.2 °F 25.0 °F 85% 30.22 in 3.0 mi North 11.5 mph - N/A   Overcast
7:53 AM 28.9 °F 18.6 °F 25.0 °F 85% 30.25 in 3.0 mi North 12.7 mph - N/A   Overcast
8:08 AM 28.4 °F 18.0 °F 24.8 °F 86% 30.22 in 2.0 mi North 12.7 mph - N/A   Overcast
8:53 AM 30.0 °F 19.5 °F 26.1 °F 85% 30.25 in 2.0 mi North 13.8 mph - N/A   Overcast
9:53 AM 32.0 °F 24.8 °F 26.1 °F 79% 30.27 in 2.0 mi North 8.1 mph - N/A   Haze
10:53 AM 34.0 °F 28.0 °F 28.0 °F 79% 30.27 in 2.5 mi North 6.9 mph - N/A   Haze
11:40 AM 37.4 °F 31.4 °F 28.4 °F 70% 30.25 in 4.0 mi North 8.1 mph - N/A   Haze
11:53 AM 37.9 °F 32.7 °F 28.0 °F 68% 30.27 in 4.0 mi North 6.9 mph - N/A   Haze
12:53 PM 44.1 °F 38.6 °F 27.0 °F 51% 30.24 in 5.0 mi NNE 10.4 mph - N/A   Haze
1:53 PM 46.0 °F 39.9 °F 26.1 °F 46% 30.21 in 5.0 mi NNE 13.8 mph 20.7 mph N/A   Haze
2:53 PM 48.0 °F - 25.0 °F 41% 30.21 in 6.0 mi NNE 11.5 mph - N/A   Haze
3:53 PM 48.0 °F - 24.1 °F 39% 30.21 in 6.0 mi ENE 8.1 mph - N/A   Haze
4:53 PM 48.0 °F - 25.0 °F 41% 30.21 in 6.0 mi ENE 5.8 mph - N/A   Haze
5:53 PM 46.0 °F 43.9 °F 25.0 °F 44% 30.22 in 6.0 mi East 4.6 mph - N/A   Haze
6:53 PM 44.1 °F - 25.0 °F 47% 30.22 in 7.0 mi Calm Calm - N/A   Clear
7:53 PM 39.9 °F - 25.0 °F 55% 30.24 in 7.0 mi Calm Calm - N/A   Clear
8:53 PM 41.0 °F 39.0 °F 26.1 °F 55% 30.22 in 6.0 mi NE 3.5 mph - N/A   Haze
9:53 PM 39.9 °F 36.7 °F 26.1 °F 58% 30.23 in 6.0 mi NNE 4.6 mph - N/A   Haze
10:53 PM 34.0 °F - 25.0 °F 70% 30.25 in 6.0 mi Calm Calm - N/A   Haze
11:53 PM 36.0 °F 31.1 °F 26.1 °F 67% 30.26 in 6.0 mi North 5.8 mph - N/A   Haze